START_TIME,STEP,MOV.,M6,t_acc.,M7,t_acc.,M19,t_acc.,H36,t_acc.
1979-07-07 09:00:27.720 ,0,0,0.,12.0,0.,12.0,0.,12.0,1.,12.0
1979-07-07 09:00:39.720 ,0,0,0.,12.0,0.,12.0,0.,12.0,0.,12.0
1979-07-07 09:00:51.720 ,0,1,0.,12.0,0.,12.0,0.,12.0,0.,12.0
1979-07-07 09:01:03.720 ,0,1,0.,12.0,0.,12.0,0.,12.0,0.,12.0
1979-07-07 09:01:15.720 ,0,0,0.,12.0,0.,12.0,0.,12.0,0.,12.0
1979-07-07 09:01:27.720 ,0,0,0.,12.0,0.,12.0,0.,12.0,0.,12.0
1979-07-07 09:01:39.720 ,1,1,1.,12.0,0.,12.0,0.,12.0,0.,12.0
1979-07-07 09:01:51.720 ,1,1,0.,12.0,0.,12.0,0.,12.0,0.,12.0
1979-07-07 09:02:03.720 ,1,0,0.,12.0,0.,12.0,0.,12.0,0.,12.0
1979-07-07 09:02:15.720 ,1,0,1.,12.0,0.,12.0,0.,12.0,0.,12.0
1979-07-07 09:02:27.720 ,2,1,0.,12.0,0.,12.0,0.,12.0,1.,12.0
1979-07-07 09:02:39.720 ,2,1,0.,12.0,0.,12.0,0.,12.0,0.,12.0
1979-07-07 09:02:51.720 ,2,0,0.,12.0,0.,12.0,0.,12.0,0.,12.0
1979-07-07 09:03:03.720 ,2,0,0.,12.0,0.,12.0,0.,12.0,0.,12.0
1979-07-07 09:03:15.720 ,3,1,0.,12.0,0.,12.0,0.,12.0,0.,12.0
1979-07-07 09:03:27.720 ,3,1,0.,12.0,0.,12.0,0.,12.0,0.,12.0
1979-07-07 09:03:39.720 ,0,0,0.,12.0,0.,12.0,0.,12.0,0.,12.0
1979-07-07 09:03:51.720 ,0,0,0.,12.0,0.,12.0,0.,12.0,0.,12.0
1979-07-07 09:04:12.120 ,0,0,,0,,0,,0,,0
1979-07-07 09:04:24.120 ,0,0,,0,,0,,0,,0
1979-07-07 09:04:27.720 ,0,0,0.,12.0,0.,12.0,0.,12.0,0.,12.0
1979-07-07 09:04:39.720 ,0,0,0.,12.0,0.,12.0,0.,12.0,0.,12.0
1979-07-07 09:04:51.720 ,5,1,0.,12.0,0.,12.0,0.,12.0,0.,12.0
1979-07-07 09:05:03.720 ,5,1,0.,12.0,0.,12.0,0.,12.0,0.,12.0
1979-07-07 09:05:15.720 ,5,0,0.,12.0,0.,12.0,0.,12.0,0.,12.0
1979-07-07 09:05:27.720 ,5,0,1.,12.0,0.,12.0,0.,12.0,0.,12.0
1979-07-07 09:05:39.720 ,6,1,0.,12.0,0.,12.0,0.,12.0,0.,12.0
1979-07-07 09:05:51.720 ,6,1,0.,12.0,0.,12.0,0.,12.0,0.,12.0
1979-07-07 09:06:03.720 ,6,0,0.,12.0,0.,12.0,0.,12.0,0.,12.0
1979-07-07 09:06:15.720 ,6,0,0.,12.0,0.,12.0,0.,12.0,0.,12.0
1979-07-07 09:06:27.720 ,7,0,0.,12.0,0.,12.0,0.,12.0,0.,12.0
1979-07-07 09:06:39.720 ,7,0,0.,12.0,0.,12.0,0.,12.0,0.,12.0
1979-07-07 09:06:51.720 ,7,0,0.,12.0,0.,12.0,0.,12.0,0.,12.0
1979-07-07 09:07:03.720 ,7,0,0.,12.0,0.,12.0,0.,12.0,0.,12.0
1979-07-07 09:07:15.720 ,4,1,0.,12.0,0.,12.0,0.,12.0,0.,12.0
1979-07-07 09:07:27.720 ,4,1,0.,12.0,0.,12.0,0.,12.0,0.,12.0
1979-07-07 09:07:39.720 ,0,1,0.,12.0,0.,12.0,0.,12.0,0.,12.0
1979-07-07 09:07:51.720 ,0,1,0.,12.0,0.,12.0,0.,12.0,0.,12.0
1979-07-07 09:08:03.720 ,3,1,0.,12.0,0.,12.0,0.,12.0,0.,12.0
1979-07-07 09:08:15.720 ,3,1,0.,12.0,0.,12.0,0.,12.0,0.,12.0
1979-07-07 09:08:27.720 ,7,1,0.,12.0,0.,12.0,0.,12.0,0.,12.0
1979-07-07 09:08:39.720 ,7,1,0.,12.0,0.,12.0,0.,12.0,0.,12.0
1979-07-07 09:08:51.720 ,4,1,0.,12.0,0.,12.0,0.,12.0,0.,12.0
1979-07-07 09:09:03.720 ,4,1,0.,12.0,0.,12.0,0.,12.0,0.,12.0
1979-07-07 09:09:15.720 ,0,1,0.,12.0,0.,12.0,0.,12.0,0.,12.0
1979-07-07 09:09:27.720 ,0,1,0.,12.0,0.,12.0,0.,12.0,1.,12.0
1979-07-07 09:09:39.720 ,3,1,0.,12.0,0.,12.0,0.,12.0,0.,12.0
1979-07-07 09:09:51.720 ,3,1,0.,12.0,0.,12.0,0.,12.0,0.,12.0
1979-07-07 09:10:03.720 ,7,1,0.,12.0,0.,12.0,0.,12.0,0.,12.0
1979-07-07 09:10:15.720 ,7,1,0.,12.0,0.,12.0,0.,12.0,0.,12.0
1979-07-07 09:10:27.720 ,4,1,0.,12.0,0.,12.0,0.,12.0,0.,12.0
1979-07-07 09:10:39.720 ,4,1,1.,12.0,0.,12.0,0.,12.0,0.,12.0
1979-07-07 09:10:51.720 ,0,1,0.,12.0,0.,12.0,0.,12.0,0.,12.0
1979-07-07 09:11:03.720 ,0,1,0.,12.0,0.,12.0,0.,12.0,0.,12.0
1979-07-07 09:11:15.720 ,3,1,0.,12.0,0.,12.0,0.,12.0,1.,12.0
1979-07-07 09:11:27.720 ,3,1,0.,12.0,0.,12.0,0.,12.0,0.,12.0
1979-07-07 09:11:39.720 ,7,1,0.,12.0,0.,12.0,0.,12.0,0.,12.0
1979-07-07 09:11:51.720 ,7,1,0.,12.0,0.,12.0,0.,12.0,0.,12.0
1979-07-07 09:12:03.720 ,4,1,1.,12.0,0.,12.0,0.,12.0,1.,12.0
1979-07-07 09:12:15.720 ,4,1,0.,12.0,0.,12.0,0.,12.0,0.,12.0
1979-07-07 09:12:27.720 ,0,1,0.,12.0,0.,12.0,0.,12.0,0.,12.0
1979-07-07 09:12:39.720 ,0,1,0.,12.0,0.,12.0,0.,12.0,1.,12.0
1979-07-07 09:12:51.720 ,3,1,0.,12.0,0.,12.0,0.,12.0,0.,12.0
1979-07-07 09:13:03.720 ,3,1,1.,12.0,0.,12.0,0.,12.0,0.,12.0
1979-07-07 09:13:15.720 ,7,1,0.,12.0,0.,12.0,0.,12.0,0.,12.0
1979-07-07 09:13:27.720 ,7,1,0.,12.0,0.,12.0,0.,12.0,0.,12.0
1979-07-07 09:13:39.720 ,4,1,0.,12.0,0.,12.0,0.,12.0,0.,12.0
1979-07-07 09:13:51.720 ,4,1,0.,12.0,0.,12.0,0.,12.0,0.,12.0
1979-07-07 09:14:03.720 ,0,1,0.,12.0,0.,12.0,0.,12.0,0.,12.0
1979-07-07 09:14:15.720 ,0,1,0.,12.0,0.,12.0,0.,12.0,0.,12.0
1979-07-07 09:14:27.720 ,3,1,1.,12.0,0.,12.0,0.,12.0,0.,12.0
1979-07-07 09:14:39.720 ,3,1,1.,12.0,0.,12.0,0.,12.0,1.,12.0
1979-07-07 09:14:51.720 ,7,1,0.,12.0,0.,12.0,0.,12.0,1.,12.0
1979-07-07 09:15:03.720 ,7,1,0.,12.0,0.,12.0,0.,12.0,1.,12.0
1979-07-07 09:15:15.720 ,4,1,0.,12.0,0.,12.0,0.,12.0,0.,12.0
1979-07-07 09:15:27.720 ,4,1,0.,12.0,0.,12.0,0.,12.0,0.,12.0
1979-07-07 09:15:39.720 ,0,1,0.,12.0,0.,12.0,0.,12.0,0.,12.0
1979-07-07 09:15:51.720 ,0,1,0.,12.0,0.,12.0,0.,12.0,0.,12.0
1979-07-07 09:16:03.720 ,3,1,0.,12.0,0.,12.0,0.,12.0,0.,12.0
1979-07-07 09:16:15.720 ,3,1,0.,12.0,0.,12.0,0.,12.0,0.,12.0
1979-07-07 09:16:27.720 ,7,1,1.,12.0,0.,12.0,0.,12.0,1.,12.0
1979-07-07 09:16:39.720 ,7,1,0.,12.0,0.,12.0,0.,12.0,0.,12.0
1979-07-07 09:16:51.720 ,4,1,0.,12.0,0.,12.0,0.,12.0,0.,12.0
1979-07-07 09:17:03.720 ,4,1,1.,12.0,0.,12.0,0.,12.0,0.,12.0
1979-07-07 09:17:15.720 ,0,1,3.,12.0,0.,12.0,0.,12.0,1.,12.0
1979-07-07 09:17:27.720 ,0,1,0.,12.0,0.,12.0,0.,12.0,0.,12.0
1979-07-07 09:17:39.720 ,0,0,0.,12.0,0.,12.0,0.,12.0,0.,12.0
1979-07-07 09:17:51.720 ,0,0,1.,12.0,0.,12.0,0.,12.0,0.,12.0
1979-07-07 09:18:03.720 ,0,0,1.,12.0,0.,12.0,0.,12.0,0.,12.0
1979-07-07 09:18:15.720 ,0,0,0.,12.0,0.,12.0,0.,12.0,0.,12.0
1979-07-07 09:18:27.720 ,5,1,0.,12.0,0.,12.0,0.,12.0,0.,12.0
1979-07-07 09:18:39.720 ,5,1,0.,12.0,0.,12.0,0.,12.0,0.,12.0
1979-07-07 09:18:51.720 ,5,0,1.,12.0,0.,12.0,0.,12.0,2.,12.0
1979-07-07 09:19:03.720 ,5,0,0.,12.0,0.,12.0,0.,12.0,1.,12.0
1979-07-07 09:19:15.720 ,4,1,0.,12.0,0.,12.0,0.,12.0,1.,12.0
1979-07-07 09:19:27.720 ,4,1,3.,12.0,0.,12.0,0.,12.0,0.,12.0
1979-07-07 09:19:39.720 ,4,0,1.,12.0,0.,12.0,0.,12.0,0.,12.0
1979-07-07 09:19:51.720 ,4,0,2.,12.0,0.,12.0,0.,12.0,0.,12.0
1979-07-07 09:20:03.720 ,3,1,1.,12.0,0.,12.0,0.,12.0,0.,12.0
1979-07-07 09:20:15.720 ,3,1,1.,12.0,0.,12.0,0.,12.0,0.,12.0
1979-07-07 09:20:27.720 ,3,0,3.,12.0,0.,12.0,0.,12.0,0.,12.0
1979-07-07 09:20:39.720 ,3,0,1.,12.0,0.,12.0,0.,12.0,0.,12.0
1979-07-07 09:20:51.720 ,2,1,1.,12.0,0.,12.0,0.,12.0,0.,12.0
1979-07-07 09:21:03.720 ,2,1,0.,12.0,0.,12.0,0.,12.0,0.,12.0
1979-07-07 09:21:15.720 ,2,0,0.,12.0,0.,12.0,0.,12.0,0.,12.0
1979-07-07 09:21:27.720 ,2,0,0.,12.0,0.,12.0,0.,12.0,1.,12.0
1979-07-07 09:21:39.720 ,1,1,0.,12.0,0.,12.0,0.,12.0,1.,12.0
1979-07-07 09:21:51.720 ,1,1,0.,12.0,0.,12.0,0.,12.0,0.,12.0
1979-07-07 09:22:03.720 ,1,0,0.,12.0,0.,12.0,0.,12.0,1.,12.0
1979-07-07 09:22:15.720 ,1,0,0.,12.0,0.,12.0,0.,12.0,0.,12.0
1979-07-07 09:22:27.720 ,0,1,1.,12.0,0.,12.0,0.,12.0,0.,12.0
1979-07-07 09:22:39.720 ,0,1,0.,12.0,0.,12.0,0.,12.0,0.,12.0
1979-07-07 09:22:51.720 ,0,0,0.,12.0,0.,12.0,0.,12.0,0.,12.0
1979-07-07 09:23:03.720 ,0,0,0.,12.0,0.,12.0,0.,12.0,0.,12.0
1979-07-07 09:23:15.720 ,0,1,2.,12.0,0.,12.0,0.,12.0,0.,12.0
1979-07-07 09:23:27.720 ,0,1,0.,12.0,0.,12.0,0.,12.0,0.,12.0
1979-07-07 09:23:39.720 ,0,0,2.,12.0,0.,12.0,0.,12.0,0.,12.0
1979-07-07 09:23:51.720 ,0,0,1.,12.0,0.,12.0,0.,12.0,0.,12.0
1979-07-07 09:24:03.720 ,1,1,0.,12.0,0.,12.0,0.,12.0,0.,12.0
1979-07-07 09:24:15.720 ,1,1,0.,12.0,0.,12.0,0.,12.0,0.,12.0
1979-07-07 09:24:27.720 ,1,0,0.,12.0,0.,12.0,0.,12.0,0.,12.0
1979-07-07 09:24:39.720 ,1,0,1.,12.0,0.,12.0,0.,12.0,0.,12.0
1979-07-07 09:24:51.720 ,2,1,0.,12.0,0.,12.0,0.,12.0,0.,12.0
1979-07-07 09:25:03.720 ,2,1,0.,12.0,0.,12.0,0.,12.0,0.,12.0
1979-07-07 09:25:15.720 ,2,0,0.,12.0,0.,12.0,0.,12.0,0.,12.0
1979-07-07 09:25:27.720 ,2,0,1.,12.0,0.,12.0,0.,12.0,0.,12.0
1979-07-07 09:25:39.720 ,3,1,0.,12.0,0.,12.0,0.,12.0,0.,12.0
1979-07-07 09:25:51.720 ,3,1,1.,12.0,0.,12.0,0.,12.0,0.,12.0
1979-07-07 09:26:03.720 ,3,0,0.,12.0,0.,12.0,0.,12.0,0.,12.0
1979-07-07 09:26:15.720 ,3,0,1.,12.0,0.,12.0,0.,12.0,0.,12.0
1979-07-07 09:26:27.720 ,4,1,0.,12.0,0.,12.0,0.,12.0,0.,12.0
1979-07-07 09:26:39.720 ,4,1,0.,12.0,0.,12.0,0.,12.0,0.,12.0
1979-07-07 09:26:51.720 ,4,0,0.,12.0,0.,12.0,0.,12.0,0.,12.0
1979-07-07 09:27:03.720 ,4,0,0.,12.0,0.,12.0,0.,12.0,0.,12.0
1979-07-07 09:27:15.720 ,5,1,0.,12.0,0.,12.0,0.,12.0,1.,12.0
1979-07-07 09:27:27.720 ,5,1,0.,12.0,0.,12.0,0.,12.0,0.,12.0
1979-07-07 09:27:39.720 ,5,0,1.,12.0,0.,12.0,0.,12.0,0.,12.0
1979-07-07 09:27:51.720 ,5,0,0.,12.0,0.,12.0,0.,12.0,0.,12.0
1979-07-07 09:28:03.720 ,6,1,0.,12.0,0.,12.0,0.,12.0,0.,12.0
1979-07-07 09:28:15.720 ,6,1,1.,12.0,0.,12.0,0.,12.0,0.,12.0
1979-07-07 09:28:27.720 ,6,0,0.,12.0,0.,12.0,0.,12.0,0.,12.0
1979-07-07 09:28:39.720 ,6,0,2.,12.0,0.,12.0,0.,12.0,0.,12.0
1979-07-07 09:28:51.720 ,7,1,0.,12.0,0.,12.0,0.,12.0,0.,12.0
1979-07-07 09:29:03.720 ,7,1,0.,12.0,0.,12.0,0.,12.0,0.,12.0
1979-07-07 09:29:15.720 ,7,0,0.,12.0,0.,12.0,0.,12.0,0.,12.0
1979-07-07 09:29:27.720 ,7,0,0.,12.0,0.,12.0,0.,12.0,0.,12.0
1979-07-07 09:29:39.720 ,7,1,0.,12.0,0.,12.0,0.,12.0,0.,12.0
1979-07-07 09:29:51.720 ,7,1,0.,12.0,0.,12.0,0.,12.0,0.,12.0
1979-07-07 09:30:03.720 ,7,0,0.,12.0,0.,12.0,0.,12.0,0.,12.0
1979-07-07 09:30:15.720 ,7,0,0.,12.0,0.,12.0,0.,12.0,0.,12.0
1979-07-07 09:30:27.720 ,6,1,0.,12.0,0.,12.0,0.,12.0,0.,12.0
1979-07-07 09:30:39.720 ,6,1,0.,12.0,0.,12.0,0.,12.0,1.,12.0
1979-07-07 09:30:51.720 ,6,0,0.,12.0,0.,12.0,0.,12.0,0.,12.0
1979-07-07 09:31:03.720 ,6,0,0.,12.0,0.,12.0,0.,12.0,1.,12.0
1979-07-07 09:31:15.720 ,5,1,1.,12.0,0.,12.0,0.,12.0,0.,12.0
1979-07-07 09:31:27.720 ,5,1,2.,12.0,0.,12.0,0.,12.0,0.,12.0
1979-07-07 09:31:39.720 ,5,0,1.,12.0,0.,12.0,0.,12.0,0.,12.0
1979-07-07 09:31:51.720 ,5,0,1.,12.0,0.,12.0,0.,12.0,0.,12.0
1979-07-07 09:32:03.720 ,4,1,0.,12.0,0.,12.0,0.,12.0,0.,12.0
1979-07-07 09:32:15.720 ,4,1,0.,12.0,0.,12.0,0.,12.0,0.,12.0
1979-07-07 09:32:27.720 ,4,0,0.,12.0,0.,12.0,0.,12.0,0.,12.0
1979-07-07 09:32:39.720 ,4,0,1.,12.0,0.,12.0,0.,12.0,0.,12.0
1979-07-07 09:32:51.720 ,3,1,2.,12.0,0.,12.0,0.,12.0,0.,12.0
1979-07-07 09:33:03.720 ,3,1,0.,12.0,0.,12.0,0.,12.0,0.,12.0
1979-07-07 09:33:15.720 ,3,0,0.,12.0,0.,12.0,0.,12.0,0.,12.0
1979-07-07 09:33:27.720 ,3,0,0.,12.0,0.,12.0,0.,12.0,1.,12.0
1979-07-07 09:33:39.720 ,2,1,0.,12.0,0.,12.0,0.,12.0,0.,12.0
1979-07-07 09:33:51.720 ,2,1,0.,12.0,0.,12.0,0.,12.0,0.,12.0
1979-07-07 09:34:03.720 ,2,0,0.,12.0,0.,12.0,0.,12.0,0.,12.0
1979-07-07 09:34:15.720 ,2,0,0.,12.0,0.,12.0,0.,12.0,0.,12.0
1979-07-07 09:34:27.720 ,1,1,0.,12.0,0.,12.0,0.,12.0,0.,12.0
1979-07-07 09:34:39.720 ,1,1,0.,12.0,0.,12.0,0.,12.0,0.,12.0
1979-07-07 09:34:51.720 ,1,0,0.,12.0,0.,12.0,0.,12.0,0.,12.0
1979-07-07 09:35:03.720 ,1,0,0.,12.0,0.,12.0,0.,12.0,0.,12.0
1979-07-07 09:35:15.720 ,0,1,0.,12.0,0.,12.0,0.,12.0,0.,12.0
1979-07-07 09:35:27.720 ,0,1,0.,12.0,0.,12.0,0.,12.0,0.,12.0
1979-07-07 09:35:39.720 ,0,0,0.,12.0,0.,12.0,0.,12.0,0.,12.0
1979-07-07 09:35:51.720 ,0,0,0.,12.0,0.,12.0,0.,12.0,0.,12.0
1979-07-07 09:36:03.720 ,0,1,1.,12.0,0.,12.0,0.,12.0,1.,12.0
1979-07-07 09:36:15.720 ,0,1,0.,12.0,0.,12.0,0.,12.0,0.,12.0
1979-07-07 09:36:27.720 ,0,0,0.,12.0,0.,12.0,0.,12.0,0.,12.0
1979-07-07 09:36:39.720 ,0,0,0.,12.0,0.,12.0,0.,12.0,0.,12.0
1979-07-07 09:36:51.720 ,1,1,1.,12.0,0.,12.0,0.,12.0,0.,12.0
1979-07-07 09:37:03.720 ,1,1,0.,12.0,0.,12.0,0.,12.0,0.,12.0
1979-07-07 09:37:15.720 ,1,0,0.,12.0,0.,12.0,0.,12.0,0.,12.0
1979-07-07 09:37:27.720 ,1,0,0.,12.0,0.,12.0,0.,12.0,0.,12.0
1979-07-07 09:37:39.720 ,2,1,1.,12.0,0.,12.0,0.,12.0,0.,12.0
1979-07-07 09:37:51.720 ,2,1,1.,12.0,0.,12.0,0.,12.0,0.,12.0
1979-07-07 09:38:03.720 ,2,0,1.,12.0,0.,12.0,0.,12.0,0.,12.0
1979-07-07 09:38:15.720 ,2,0,2.,12.0,0.,12.0,0.,12.0,0.,12.0
1979-07-07 09:38:27.720 ,3,1,0.,12.0,0.,12.0,0.,12.0,0.,12.0
1979-07-07 09:38:39.720 ,3,1,0.,12.0,0.,12.0,0.,12.0,0.,12.0
1979-07-07 09:38:51.720 ,3,0,0.,12.0,0.,12.0,0.,12.0,0.,12.0
1979-07-07 09:39:03.720 ,3,0,0.,12.0,0.,12.0,0.,12.0,0.,12.0
1979-07-07 09:39:15.720 ,4,1,0.,12.0,0.,12.0,0.,12.0,0.,12.0
1979-07-07 09:39:27.720 ,4,1,0.,12.0,0.,12.0,0.,12.0,0.,12.0
1979-07-07 09:39:39.720 ,4,0,0.,12.0,0.,12.0,0.,12.0,0.,12.0
1979-07-07 09:39:51.720 ,4,0,0.,12.0,0.,12.0,0.,12.0,0.,12.0
1979-07-07 09:40:03.720 ,5,1,0.,12.0,0.,12.0,0.,12.0,0.,12.0
1979-07-07 09:40:15.720 ,5,1,0.,12.0,0.,12.0,0.,12.0,1.,12.0
1979-07-07 09:40:27.720 ,5,0,0.,12.0,0.,12.0,0.,12.0,0.,12.0
1979-07-07 09:40:39.720 ,5,0,0.,12.0,0.,12.0,0.,12.0,0.,12.0
1979-07-07 09:40:51.720 ,6,1,0.,12.0,0.,12.0,0.,12.0,0.,12.0
1979-07-07 09:41:03.720 ,6,1,1.,12.0,0.,12.0,0.,12.0,0.,12.0
1979-07-07 09:41:15.720 ,6,0,0.,12.0,0.,12.0,0.,12.0,0.,12.0
1979-07-07 09:41:27.720 ,6,0,1.,12.0,0.,12.0,0.,12.0,0.,12.0
1979-07-07 09:41:39.720 ,7,1,0.,12.0,0.,12.0,0.,12.0,0.,12.0
1979-07-07 09:41:51.720 ,7,1,0.,12.0,0.,12.0,0.,12.0,0.,12.0
1979-07-07 09:42:03.720 ,7,0,0.,12.0,0.,12.0,0.,12.0,0.,12.0
1979-07-07 09:42:15.720 ,7,0,0.,12.0,0.,12.0,0.,12.0,0.,12.0
1979-07-07 09:42:27.720 ,7,1,0.,12.0,0.,12.0,0.,12.0,0.,12.0
1979-07-07 09:42:39.720 ,7,1,0.,12.0,0.,12.0,0.,12.0,0.,12.0
1979-07-07 09:42:51.720 ,7,0,0.,12.0,0.,12.0,0.,12.0,0.,12.0
1979-07-07 09:43:03.720 ,7,0,0.,12.0,0.,12.0,0.,12.0,0.,12.0
1979-07-07 09:43:15.720 ,6,1,0.,12.0,0.,12.0,0.,12.0,0.,12.0
1979-07-07 09:43:27.720 ,6,1,0.,12.0,0.,12.0,0.,12.0,1.,12.0
1979-07-07 09:43:39.720 ,6,0,0.,12.0,0.,12.0,0.,12.0,0.,12.0
1979-07-07 09:43:51.720 ,6,0,0.,12.0,0.,12.0,0.,12.0,0.,12.0
1979-07-07 09:44:03.720 ,5,1,0.,12.0,0.,12.0,0.,12.0,0.,12.0
1979-07-07 09:44:15.720 ,5,1,0.,12.0,0.,12.0,0.,12.0,0.,12.0
1979-07-07 09:44:27.720 ,5,0,0.,12.0,0.,12.0,0.,12.0,0.,12.0
1979-07-07 09:44:39.720 ,5,0,0.,12.0,0.,12.0,0.,12.0,0.,12.0
1979-07-07 09:44:51.720 ,4,1,0.,12.0,0.,12.0,0.,12.0,0.,12.0
1979-07-07 09:45:03.720 ,4,1,0.,12.0,0.,12.0,0.,12.0,0.,12.0
1979-07-07 09:45:15.720 ,4,0,0.,12.0,0.,12.0,0.,12.0,0.,12.0
1979-07-07 09:45:27.720 ,4,0,0.,12.0,0.,12.0,0.,12.0,0.,12.0
1979-07-07 09:45:39.720 ,3,1,0.,12.0,0.,12.0,0.,12.0,0.,12.0
1979-07-07 09:45:51.720 ,3,1,0.,12.0,0.,12.0,0.,12.0,0.,12.0
1979-07-07 09:46:03.720 ,3,0,0.,12.0,0.,12.0,0.,12.0,0.,12.0
1979-07-07 09:46:15.720 ,3,0,0.,12.0,0.,12.0,0.,12.0,0.,12.0
1979-07-07 09:46:27.720 ,2,1,0.,12.0,0.,12.0,0.,12.0,0.,12.0
1979-07-07 09:46:39.720 ,2,1,1.,12.0,0.,12.0,0.,12.0,1.,12.0
1979-07-07 09:46:51.720 ,2,0,0.,12.0,0.,12.0,0.,12.0,0.,12.0
1979-07-07 09:47:03.720 ,2,0,2.,12.0,0.,12.0,0.,12.0,0.,12.0
1979-07-07 09:47:15.720 ,1,1,0.,12.0,0.,12.0,0.,12.0,0.,12.0
1979-07-07 09:47:27.720 ,1,1,0.,12.0,0.,12.0,0.,12.0,0.,12.0
1979-07-07 09:47:39.720 ,1,0,0.,12.0,0.,12.0,0.,12.0,0.,12.0
1979-07-07 09:47:51.720 ,1,0,0.,12.0,0.,12.0,0.,12.0,0.,12.0
1979-07-07 09:48:03.720 ,0,1,0.,12.0,0.,12.0,0.,12.0,1.,12.0
1979-07-07 09:48:15.720 ,0,1,0.,12.0,0.,12.0,0.,12.0,0.,12.0
1979-07-07 09:48:27.720 ,0,0,0.,12.0,0.,12.0,0.,12.0,0.,12.0
1979-07-07 09:48:39.720 ,0,0,1.,12.0,0.,12.0,0.,12.0,0.,12.0
1979-07-07 09:48:51.720 ,0,1,0.,12.0,0.,12.0,0.,12.0,0.,12.0
1979-07-07 09:49:03.720 ,0,1,0.,12.0,0.,12.0,0.,12.0,0.,12.0
1979-07-07 09:49:15.720 ,0,0,0.,12.0,0.,12.0,0.,12.0,0.,12.0
1979-07-07 09:49:27.720 ,0,0,0.,12.0,0.,12.0,0.,12.0,0.,12.0
1979-07-07 09:49:39.720 ,1,1,0.,12.0,0.,12.0,0.,12.0,0.,12.0
1979-07-07 09:49:51.720 ,1,1,1.,12.0,0.,12.0,0.,12.0,0.,12.0
1979-07-07 09:50:03.720 ,1,0,0.,12.0,0.,12.0,0.,12.0,0.,12.0
1979-07-07 09:50:15.720 ,1,0,0.,12.0,0.,12.0,0.,12.0,0.,12.0
1979-07-07 09:50:27.720 ,2,1,0.,12.0,0.,12.0,0.,12.0,0.,12.0
1979-07-07 09:50:39.720 ,2,1,0.,12.0,0.,12.0,0.,12.0,0.,12.0
1979-07-07 09:50:51.720 ,2,0,0.,12.0,0.,12.0,0.,12.0,0.,12.0
1979-07-07 09:51:03.720 ,2,0,0.,12.0,0.,12.0,0.,12.0,0.,12.0
1979-07-07 09:51:15.720 ,3,1,0.,12.0,0.,12.0,0.,12.0,0.,12.0
1979-07-07 09:51:27.720 ,3,1,0.,12.0,0.,12.0,0.,12.0,0.,12.0
1979-07-07 09:51:39.720 ,3,0,0.,12.0,0.,12.0,0.,12.0,0.,12.0
1979-07-07 09:51:51.720 ,3,0,1.,12.0,0.,12.0,0.,12.0,0.,12.0
1979-07-07 09:52:03.720 ,4,1,0.,12.0,0.,12.0,0.,12.0,0.,12.0
1979-07-07 09:52:15.720 ,4,1,0.,12.0,0.,12.0,0.,12.0,0.,12.0
1979-07-07 09:52:27.720 ,4,0,0.,12.0,0.,12.0,0.,12.0,1.,12.0
1979-07-07 09:52:39.720 ,4,0,0.,12.0,0.,12.0,0.,12.0,0.,12.0
1979-07-07 09:52:51.720 ,5,1,0.,12.0,0.,12.0,0.,12.0,0.,12.0
1979-07-07 09:53:03.720 ,5,1,1.,12.0,0.,12.0,0.,12.0,0.,12.0
1979-07-07 09:53:15.720 ,0,0,0.,12.0,0.,12.0,0.,12.0,1.,12.0
1979-07-07 09:53:27.720 ,0,0,0.,12.0,0.,12.0,0.,12.0,0.,12.0
1979-07-07 09:53:39.720 ,6,1,1.,12.0,0.,12.0,0.,12.0,0.,12.0
1979-07-07 09:53:51.720 ,6,1,0.,12.0,0.,12.0,0.,12.0,0.,12.0
1979-07-07 09:54:03.720 ,6,0,0.,12.0,0.,12.0,0.,12.0,0.,12.0
1979-07-07 09:54:15.720 ,6,0,0.,12.0,0.,12.0,0.,12.0,0.,12.0
1979-07-07 09:54:27.720 ,7,0,0.,12.0,0.,12.0,0.,12.0,0.,12.0
1979-07-07 09:54:39.720 ,7,0,0.,12.0,0.,12.0,0.,12.0,0.,12.0
1979-07-07 09:54:51.720 ,7,0,0.,12.0,0.,12.0,0.,12.0,0.,12.0
1979-07-07 09:55:03.720 ,7,0,0.,12.0,0.,12.0,0.,12.0,0.,12.0
1979-07-07 09:55:15.720 ,4,1,0.,12.0,0.,12.0,0.,12.0,0.,12.0
1979-07-07 09:55:27.720 ,4,1,0.,12.0,0.,12.0,0.,12.0,0.,12.0
1979-07-07 09:55:39.720 ,0,1,0.,12.0,0.,12.0,0.,12.0,0.,12.0
1979-07-07 09:55:51.720 ,0,1,0.,12.0,0.,12.0,0.,12.0,0.,12.0
1979-07-07 09:56:03.720 ,3,1,0.,12.0,0.,12.0,0.,12.0,0.,12.0
1979-07-07 09:56:15.720 ,3,1,0.,12.0,0.,12.0,0.,12.0,0.,12.0
1979-07-07 09:56:27.720 ,7,1,0.,12.0,0.,12.0,0.,12.0,0.,12.0
1979-07-07 09:56:39.720 ,7,1,0.,12.0,0.,12.0,0.,12.0,0.,12.0
1979-07-07 09:56:51.720 ,4,1,0.,12.0,0.,12.0,0.,12.0,0.,12.0
1979-07-07 09:57:03.720 ,4,1,0.,12.0,0.,12.0,0.,12.0,0.,12.0
1979-07-07 09:57:15.720 ,0,1,0.,12.0,0.,12.0,0.,12.0,0.,12.0
1979-07-07 09:57:27.720 ,0,1,0.,12.0,0.,12.0,0.,12.0,0.,12.0
1979-07-07 09:57:39.720 ,3,1,0.,12.0,0.,12.0,0.,12.0,0.,12.0
1979-07-07 09:57:51.720 ,3,1,0.,12.0,0.,12.0,0.,12.0,1.,12.0
1979-07-07 09:58:03.720 ,7,1,0.,12.0,0.,12.0,0.,12.0,0.,12.0
1979-07-07 09:58:15.720 ,7,1,0.,12.0,0.,12.0,0.,12.0,0.,12.0
1979-07-07 09:58:27.720 ,4,1,0.,12.0,0.,12.0,0.,12.0,0.,12.0
1979-07-07 09:58:39.720 ,4,1,0.,12.0,0.,12.0,0.,12.0,0.,12.0
1979-07-07 09:58:51.720 ,0,1,0.,12.0,0.,12.0,0.,12.0,0.,12.0
1979-07-07 09:59:03.720 ,0,1,0.,12.0,0.,12.0,0.,12.0,0.,12.0
1979-07-07 09:59:15.720 ,3,1,0.,12.0,0.,12.0,0.,12.0,0.,12.0
1979-07-07 09:59:27.720 ,3,1,0.,12.0,0.,12.0,0.,12.0,0.,12.0
1979-07-07 09:59:39.720 ,7,1,0.,12.0,0.,12.0,0.,12.0,0.,12.0
1979-07-07 09:59:51.720 ,7,1,0.,12.0,0.,12.0,0.,12.0,0.,12.0
1979-07-07 10:00:03.720 ,4,1,1.,12.0,0.,12.0,0.,12.0,0.,12.0
1979-07-07 10:00:15.720 ,4,1,1.,12.0,0.,12.0,0.,12.0,1.,12.0
1979-07-07 10:00:27.720 ,0,1,0.,12.0,0.,12.0,0.,12.0,0.,12.0
1979-07-07 10:00:39.720 ,0,1,0.,12.0,0.,12.0,0.,12.0,0.,12.0
1979-07-07 10:00:51.720 ,3,1,0.,12.0,0.,12.0,0.,12.0,0.,12.0
1979-07-07 10:01:03.720 ,3,1,1.,12.0,0.,12.0,0.,12.0,0.,12.0
1979-07-07 10:01:15.720 ,7,1,0.,12.0,0.,12.0,0.,12.0,1.,12.0
1979-07-07 10:01:27.720 ,7,1,0.,12.0,0.,12.0,0.,12.0,0.,12.0
1979-07-07 10:01:39.720 ,4,1,0.,12.0,0.,12.0,0.,12.0,0.,12.0
1979-07-07 10:01:51.720 ,4,1,0.,12.0,0.,12.0,0.,12.0,0.,12.0
1979-07-07 10:02:03.720 ,0,1,0.,12.0,0.,12.0,0.,12.0,0.,12.0
1979-07-07 10:02:15.720 ,0,1,0.,12.0,0.,12.0,0.,12.0,1.,12.0
1979-07-07 10:02:27.720 ,3,1,0.,12.0,0.,12.0,0.,12.0,0.,12.0
1979-07-07 10:02:39.720 ,3,1,0.,12.0,0.,12.0,0.,12.0,0.,12.0
1979-07-07 10:02:51.720 ,7,1,0.,12.0,0.,12.0,0.,12.0,0.,12.0
1979-07-07 10:03:03.720 ,7,1,0.,12.0,0.,12.0,0.,12.0,0.,12.0
1979-07-07 10:03:15.720 ,4,1,0.,12.0,0.,12.0,0.,12.0,0.,12.0
1979-07-07 10:03:27.720 ,4,1,0.,12.0,0.,12.0,0.,12.0,1.,12.0
1979-07-07 10:03:39.720 ,0,1,0.,12.0,0.,12.0,0.,12.0,0.,12.0
1979-07-07 10:03:51.720 ,0,1,1.,12.0,0.,12.0,0.,12.0,0.,12.0
1979-07-07 10:04:03.720 ,3,1,0.,12.0,0.,12.0,0.,12.0,0.,12.0
1979-07-07 10:04:15.720 ,3,1,1.,12.0,0.,12.0,0.,12.0,0.,12.0
1979-07-07 10:04:27.720 ,7,1,0.,12.0,0.,12.0,0.,12.0,0.,12.0
1979-07-07 10:04:39.720 ,7,1,0.,12.0,0.,12.0,0.,12.0,0.,12.0
1979-07-07 10:04:51.720 ,4,1,0.,12.0,0.,12.0,0.,12.0,0.,12.0
1979-07-07 10:05:03.720 ,4,1,0.,12.0,0.,12.0,0.,12.0,0.,12.0
1979-07-07 10:05:15.720 ,0,1,0.,12.0,0.,12.0,0.,12.0,0.,12.0
1979-07-07 10:05:27.720 ,0,1,1.,12.0,0.,12.0,0.,12.0,0.,12.0
1979-07-07 10:05:39.720 ,0,0,0.,12.0,0.,12.0,0.,12.0,0.,12.0
1979-07-07 10:05:51.720 ,0,0,0.,12.0,0.,12.0,0.,12.0,0.,12.0
1979-07-07 10:06:03.720 ,0,0,0.,12.0,0.,12.0,0.,12.0,0.,12.0
1979-07-07 10:06:15.720 ,0,0,0.,12.0,0.,12.0,0.,12.0,0.,12.0
1979-07-07 10:06:27.720 ,5,1,0.,12.0,0.,12.0,0.,12.0,0.,12.0
1979-07-07 10:06:39.720 ,5,1,0.,12.0,0.,12.0,0.,12.0,0.,12.0
1979-07-07 10:06:51.720 ,5,0,0.,12.0,0.,12.0,0.,12.0,0.,12.0
1979-07-07 10:07:03.720 ,5,0,0.,12.0,0.,12.0,0.,12.0,0.,12.0
1979-07-07 10:07:15.720 ,4,1,0.,12.0,0.,12.0,0.,12.0,0.,12.0
1979-07-07 10:07:27.720 ,4,1,0.,12.0,0.,12.0,0.,12.0,0.,12.0
1979-07-07 10:07:39.720 ,4,0,0.,12.0,0.,12.0,0.,12.0,0.,12.0
1979-07-07 10:07:51.720 ,4,0,0.,12.0,0.,12.0,0.,12.0,0.,12.0
1979-07-07 10:08:03.720 ,3,1,0.,12.0,0.,12.0,0.,12.0,0.,12.0
1979-07-07 10:08:15.720 ,3,1,0.,12.0,0.,12.0,0.,12.0,0.,12.0
1979-07-07 10:08:27.720 ,3,0,0.,12.0,0.,12.0,0.,12.0,0.,12.0
1979-07-07 10:08:39.720 ,3,0,1.,12.0,0.,12.0,0.,12.0,0.,12.0
1979-07-07 10:08:51.720 ,2,1,0.,12.0,0.,12.0,0.,12.0,0.,12.0
1979-07-07 10:09:03.720 ,2,1,0.,12.0,0.,12.0,0.,12.0,0.,12.0
1979-07-07 10:09:15.720 ,2,0,0.,12.0,0.,12.0,0.,12.0,0.,12.0
1979-07-07 10:09:27.720 ,2,0,0.,12.0,0.,12.0,0.,12.0,0.,12.0
1979-07-07 10:09:39.720 ,1,1,0.,12.0,0.,12.0,0.,12.0,0.,12.0
1979-07-07 10:09:51.720 ,1,1,0.,12.0,0.,12.0,0.,12.0,0.,12.0
1979-07-07 10:10:03.720 ,1,0,0.,12.0,0.,12.0,0.,12.0,0.,12.0
1979-07-07 10:10:15.720 ,1,0,0.,12.0,0.,12.0,0.,12.0,0.,12.0
1979-07-07 10:10:27.720 ,0,1,0.,12.0,0.,12.0,0.,12.0,0.,12.0
1979-07-07 10:10:39.720 ,0,1,0.,12.0,0.,12.0,0.,12.0,0.,12.0
1979-07-07 10:10:51.720 ,0,0,0.,12.0,0.,12.0,0.,12.0,1.,12.0
1979-07-07 10:11:03.720 ,0,0,0.,12.0,0.,12.0,0.,12.0,0.,12.0
1979-07-07 10:11:15.720 ,0,1,2.,12.0,0.,12.0,0.,12.0,0.,12.0
1979-07-07 10:11:27.720 ,0,1,1.,12.0,0.,12.0,0.,12.0,0.,12.0
1979-07-07 10:11:39.720 ,0,0,0.,12.0,0.,12.0,0.,12.0,0.,12.0
1979-07-07 10:11:51.720 ,0,0,0.,12.0,0.,12.0,0.,12.0,0.,12.0
1979-07-07 10:12:03.720 ,1,1,0.,12.0,0.,12.0,0.,12.0,0.,12.0
1979-07-07 10:12:15.720 ,1,1,0.,12.0,0.,12.0,0.,12.0,0.,12.0
1979-07-07 10:12:27.720 ,1,0,0.,12.0,0.,12.0,0.,12.0,0.,12.0
1979-07-07 10:12:39.720 ,1,0,0.,12.0,0.,12.0,0.,12.0,0.,12.0
1979-07-07 10:12:51.720 ,2,1,0.,12.0,0.,12.0,0.,12.0,0.,12.0
1979-07-07 10:13:03.720 ,2,1,0.,12.0,0.,12.0,0.,12.0,0.,12.0
1979-07-07 10:13:15.720 ,2,0,0.,12.0,0.,12.0,0.,12.0,0.,12.0
1979-07-07 10:13:27.720 ,2,0,0.,12.0,0.,12.0,0.,12.0,0.,12.0
1979-07-07 10:13:39.720 ,3,1,0.,12.0,0.,12.0,0.,12.0,0.,12.0
1979-07-07 10:13:51.720 ,3,1,2.,12.0,0.,12.0,0.,12.0,0.,12.0
1979-07-07 10:14:03.720 ,3,0,1.,12.0,0.,12.0,0.,12.0,0.,12.0
1979-07-07 10:14:15.720 ,3,0,2.,12.0,0.,12.0,0.,12.0,0.,12.0
1979-07-07 10:14:27.720 ,4,1,1.,12.0,0.,12.0,0.,12.0,0.,12.0
1979-07-07 10:14:39.720 ,4,1,1.,12.0,0.,12.0,0.,12.0,0.,12.0
1979-07-07 10:14:51.720 ,4,0,0.,12.0,0.,12.0,0.,12.0,0.,12.0
1979-07-07 10:15:03.720 ,4,0,0.,12.0,0.,12.0,0.,12.0,0.,12.0
1979-07-07 10:15:15.720 ,5,1,0.,12.0,0.,12.0,0.,12.0,1.,12.0
1979-07-07 10:15:27.720 ,5,1,0.,12.0,0.,12.0,0.,12.0,0.,12.0
1979-07-07 10:15:39.720 ,5,0,0.,12.0,0.,12.0,0.,12.0,0.,12.0
1979-07-07 10:15:51.720 ,5,0,0.,12.0,0.,12.0,0.,12.0,0.,12.0
1979-07-07 10:16:03.720 ,6,1,0.,12.0,0.,12.0,0.,12.0,1.,12.0
1979-07-07 10:16:15.720 ,6,1,0.,12.0,0.,12.0,0.,12.0,0.,12.0
1979-07-07 10:16:27.720 ,6,0,0.,12.0,0.,12.0,0.,12.0,0.,12.0
1979-07-07 10:16:39.720 ,6,0,0.,12.0,0.,12.0,0.,12.0,0.,12.0
1979-07-07 10:16:51.720 ,7,1,0.,12.0,0.,12.0,0.,12.0,0.,12.0
1979-07-07 10:17:03.720 ,7,1,0.,12.0,0.,12.0,0.,12.0,0.,12.0
1979-07-07 10:17:15.720 ,7,0,0.,12.0,0.,12.0,0.,12.0,0.,12.0
1979-07-07 10:17:27.720 ,7,0,0.,12.0,0.,12.0,0.,12.0,0.,12.0